{"data":{"norad_id":48374,"intl_designator":"2021-038X","name":"STARLINK-2604","alt_names":[],"object_type":"PAYLOAD","status":"ACTIVE","operator":null,"country":"US","launch_date":"2021-05-04","launch_site_code":"AFETR","launch_vehicle":null,"mission":null,"orbit_class":"UNKNOWN","rcs_meters":null,"size_class":null,"mass_kg":null,"dimensions":null,"purposes":["comms"],"wikipedia_slug":null,"has_3d_model":false,"image_url":null,"decayed_at":null,"tle_current":{"epoch":"2026-09-19T10:50:04.446240Z","epoch_age_seconds":116373,"freshness":"FRESH","line1":"1 48374U 21038X   26262.45144035 -.00000329  00000+0  11519-5 0  9990","line2":"2 48374  53.1604 166.0513 0001218  95.7972 264.3169 15.31695748296917","mean_motion":15.31695748,"eccentricity":0.0001218,"inclination_deg":53.1604,"raan_deg":166.0513,"arg_perigee_deg":95.7972,"mean_anomaly_deg":264.3169,"bstar":1.1519e-6,"rev_number":29691,"period_min":94.013448942472,"perigee_km":469.91847548388,"apogee_km":471.58686500755,"semimajor_km":6848.8896702457,"source":"CELESTRAK","updated_at":"2026-09-20T09:00:38.942654Z"}}}